Wind_Speed
68 70 73 76 78 84 84 81 84 85 87 91 92 90 91 88 80 80 81 78 78 76 74 75 77 79 75 76 73 76 79 86 92 96 98 98 98 97 95 95 94 87 85 87 86 86 84
77 80 84 86 88 91 90 89 91 93 96 95 95 96 96 92 87 79 79 79 76 76 75 75 74 75 75 73 72 71 76 79 85 88 93 97 98 98 97 96 93 90 85 88 86 86 86
80 85 88 92 96 100 103 99 101 101 102 101 96 98 98 93 88 84 80 79 78 75 75 75 70 68 73 73 66 67 69 71 78 82 87 89 92 95 93 91 90 87 84 85 88 88 88
93 93 96 101 108 106 105 107 107 107 101 99 98 93 89 84 80 78 79 79 78 76 74 72 66 61 66 70 59 59 58 66 69 72 76 82 84 89 88 87 85 86 85 84 84 82 81
100 105 107 109 114 110 108 106 101 97 92 88 85 81 74 71 67 67 66 69 68 72 67 62 55 55 58 60 51 50 50 57 65 65 74 78 80 80 82 80 79 81 80 78 80 76 75
103 111 116 119 115 111 104 94 88 84 83 81 76 73 67 57 53 53 56 59 60 58 53 53 50 50 51 48 45 45 44 51 57 63 68 72 71 71 69 69 72 72 71 72 72 70 70
110 119 124 120 110 96 89 77 68 71 68 67 68 66 60 52 46 43 46 49 48 50 49 44 42 45 42 39 34 37 44 49 50 55 58 57 58 61 62 61 61 63 63 64 66 64 63
114 127 119 110 94 85 66 66 60 59 55 54 53 51 45 40 38 37 36 37 40 43 36 36 40 38 36 32 31 35 40 42 43 43 47 49 52 51 49 51 53 56 60 60 60 61 63
123 122 114 102 97 85 75 65 64 54 44 40 38 36 30 27 29 29 26 27 32 29 31 34 30 26 28 29 30 29 31 35 36 40 41 42 41 41 43 47 47 48 51 55 58 58 60
124 115 106 101 94 85 76 72 60 47 40 35 28 23 16 18 20 17 17 19 23 23 26 24 22 25 26 25 26 29 30 31 32 30 31 32 33 35 36 39 43 46 49 52 55 56 55
114 108 99 92 84 78 74 63 52 44 33 26 20 12 6 5 5 8 13 17 21 23 24 24 26 26 24 25 30 28 24 25 29 27 27 25 29 30 34 38 41 42 43 43 42 42 41
110 101 95 87 77 70 65 53 43 36 27 19 12 7 6 10 14 18 24 28 30 31 29 28 28 25 26 28 26 23 25 25 23 20 20 22 26 29 31 31 31 31 30 28 26 24 22
107 100 88 77 68 65 57 48 37 31 25 20 18 18 16 21 26 31 33 34 34 31 29 28 27 29 27 27 27 23 22 19 16 14 16 21 22 21 22 23 23 23 21 18 19 17 18
99 87 75 69 65 62 53 45 40 37 33 27 26 30 29 30 31 32 33 33 34 33 29 31 29 27 25 25 25 21 19 17 10 12 15 12 12 14 14 16 13 15 11 16 18 19 21
91 104 96 81 64 66 62 57 52 47 39 35 33 35 36 38 35 37 36 30 31 35 33 31 28 28 26 23 20 17 13 7 8 7 5 6 9 11 12 14 14 17 18 19 22 24 25
99 99 98 86 79 71 67 63 57 53 51 50 45 42 39 38 38 40 37 32 33 35 32 32 30 25 22 18 16 10 8 8 6 7 7 9 12 14 17 16 18 21 23 24 25 24 27
98 96 92 94 89 76 68 61 56 53 52 55 58 53 44 40 40 38 39 34 34 33 30 27 24 21 18 15 12 12 11 11 9 8 10 13 14 18 20 24 23 25 26 25 20 25 26
115 91 97 90 89 84 74 65 58 53 50 47 55 50 44 43 39 38 37 34 29 27 26 23 20 16 15 16 15 15 16 13 10 11 14 13 15 21 23 25 27 28 25 25 29 20 29
110 102 88 92 85 79 73 68 63 56 52 47 49 46 40 37 34 32 31 29 27 25 23 22 20 19 18 19 19 20 18 15 13 14 15 17 20 24 25 30 32 30 28 28 29 25 29
100 106 82 83 85 81 70 65 59 54 49 47 45 42 38 36 33 31 31 30 28 27 26 24 23 23 23 25 23 24 21 18 17 15 17 15 19 23 27 29 34 32 33 30 28 25 25
96 105 91 75 72 76 75 64 61 58 51 46 40 39 38 37 36 34 33 31 30 28 27 24 25 24 27 28 26 28 26 24 23 22 19 16 15 18 18 27 30 35 33 32 29 26 21
87 99 89 74 65 66 70 65 60 58 55 49 44 40 38 37 38 39 38 36 32 29 25 28 25 26 31 31 28 28 30 31 31 31 26 26 27 20 19 18 24 29 33 32 32 33 30
88 87 87 74 64 60 61 62 54 49 46 43 43 39 39 40 41 41 41 38 34 30 30 31 30 35 35 35 33 31 31 33 34 37 36 34 28 27 27 26 24 25 21 28 28 29 29
86 75 82 79 65 54 51 50 52 45 39 37 36 35 37 37 39 40 40 40 38 36 36 36 37 40 42 43 40 38 39 41 40 41 42 40 38 37 33 34 32 32 32 31 26 17 14
83 81 71 74 70 60 44 44 41 43 39 35 33 31 32 31 33 37 37 37 38 37 36 36 38 37 40 40 43 43 45 46 46 45 47 46 45 46 45 44 41 41 41 40 37 33 30
78 77 64 68 68 75 57 37 37 38 38 32 30 29 31 33 31 28 28 30 33 34 34 35 38 38 38 39 40 40 41 43 42 43 41 42 41 40 38 38 38 37 36 35 33 31 28
74 71 75 66 66 63 69 50 33 32 32 35 28 25 26 27 26 25 24 23 25 27 28 29 31 32 32 34 34 36 36 36 36 35 34 35 35 34 33 32 30 29 28 27 25 24 22
68 66 72 63 59 62 60 62 51 30 30 29 33 26 22 20 20 18 17 15 17 18 19 21 23 24 25 25 27 28 29 29 28 28 28 27 27 26 26 24 23 22 21 19 18 16 14
63 69 66 54 62 62 58 59 55 39 21 26 29 28 24 19 16 16 16 15 13 10 10 12 12 15 15 16 18 19 19 19 18 18 18 17 17 17 16 15 14 13 12 10 9 7 6
Wind_Direction
337 332 328 324 320 318 315 313 311 310 308 306 302 297 295 292 287 279 272 269 266 264 262 261 261 261 259 257 251 247 245 246 245 243 244 242 243 244 244 247 248 249 249 250 249 252 252
344 338 333 329 326 324 319 313 310 309 305 300 296 293 292 290 286 282 271 267 264 262 262 260 260 261 259 258 255 246 245 245 245 245 244 243 244 245 246 247 248 251 250 251 250 250 251
337 335 332 329 326 322 319 317 312 307 303 300 297 291 289 287 283 279 273 266 264 263 262 263 260 260 260 258 257 250 244 245 246 246 246 246 246 246 248 249 251 251 252 251 252 252 251
338 334 332 331 327 322 317 315 312 309 302 298 293 290 286 283 279 276 272 268 264 263 263 263 263 259 258 258 257 252 243 244 245 243 245 246 246 246 247 248 251 252 252 253 255 256 256
339 335 330 327 325 323 316 312 308 305 302 298 294 291 287 281 275 270 265 262 262 262 263 263 262 257 255 256 255 251 247 245 246 243 243 246 247 247 248 250 252 251 255 255 257 256 256
334 334 332 328 324 319 314 315 311 309 304 299 297 292 289 282 273 267 262 258 255 255 255 255 257 256 251 253 253 251 247 244 243 241 243 245 248 250 251 249 250 251 254 255 255 254 255
334 333 331 326 322 321 318 316 308 306 303 298 294 292 292 289 280 267 259 255 250 247 242 242 246 246 249 251 252 245 240 242 243 241 243 249 250 247 247 249 251 253 255 255 256 257 258
335 334 329 327 328 329 329 329 324 318 307 298 293 290 286 281 272 266 257 250 245 239 237 233 234 239 248 250 241 239 240 240 239 242 244 241 242 246 250 249 249 251 254 255 256 256 253
338 337 334 333 335 338 339 335 331 324 315 308 306 300 291 279 264 257 250 239 234 235 215 221 224 233 237 230 228 234 229 230 233 235 238 242 245 246 246 248 251 253 254 254 253 255 255
341 338 338 338 339 339 338 337 335 333 331 322 313 310 302 275 261 249 230 212 209 205 201 200 203 211 209 210 213 212 216 222 229 233 235 238 243 245 247 250 252 253 255 257 258 257 255
342 344 343 342 341 342 342 341 341 339 338 334 332 329 312 275 233 197 174 165 166 167 169 179 189 191 192 194 195 205 211 220 220 225 229 233 242 247 250 254 256 258 257 255 255 253 251
349 350 347 348 349 348 347 349 350 357 359 1 8 38 83 108 121 135 141 143 146 152 163 171 176 173 173 180 188 197 200 208 214 217 230 241 250 253 255 255 254 252 252 251 252 246 231
352 352 351 353 355 353 357 0 7 17 25 34 55 70 93 105 120 129 134 141 145 149 154 158 156 159 164 174 182 186 189 202 215 229 244 247 251 250 251 249 252 253 248 229 218 199 193
4 3 2 0 2 7 12 15 28 36 45 56 75 87 92 106 115 122 127 131 135 140 142 145 146 154 161 163 170 179 190 203 211 227 234 238 242 247 248 250 251 230 200 191 173 157 157
13 19 18 15 12 21 25 28 31 37 47 59 73 82 92 96 102 110 114 117 126 127 135 143 142 146 150 156 162 182 180 171 194 208 204 216 221 222 211 191 179 170 157 153 143 142 140
18 20 22 20 21 24 31 35 38 44 53 63 68 74 80 88 95 100 101 109 121 128 131 134 135 144 145 149 162 145 129 144 153 169 177 204 195 190 171 168 161 149 140 133 132 133 134
13 20 20 24 25 27 34 38 44 51 59 65 68 67 71 80 89 96 100 103 108 114 119 126 132 138 140 132 117 108 115 119 124 152 168 167 179 167 152 149 141 138 137 130 131 130 133
13 16 18 20 21 22 25 33 41 49 57 66 74 71 77 80 84 94 98 104 109 115 120 119 118 120 109 106 104 104 95 110 127 148 150 155 157 153 148 138 135 135 133 126 133 138 138
9 13 17 17 17 20 22 24 27 35 47 56 65 68 72 78 86 93 94 98 100 103 104 105 107 103 98 95 93 88 94 109 119 137 141 148 151 145 142 138 131 127 128 127 125 135 151
10 11 18 18 14 20 21 23 24 29 38 45 53 61 67 72 77 80 84 90 94 97 99 100 99 97 94 91 89 91 92 99 111 116 122 129 150 148 144 144 137 131 129 127 132 138 151
10 13 12 18 18 9 21 21 22 26 34 42 49 59 65 70 74 75 78 81 85 87 88 92 94 97 98 100 102 100 100 100 100 101 106 111 119 148 144 145 143 139 137 137 139 141 151
10 6 11 14 19 16 10 17 20 22 27 35 41 47 59 62 65 65 65 69 74 80 90 91 93 99 103 104 104 105 106 105 99 96 89 93 88 99 113 124 139 147 145 146 144 149 150
3 7 14 12 15 17 14 10 20 21 25 33 40 46 53 58 65 68 68 69 71 77 81 89 98 98 97 99 101 102 102 104 106 106 102 95 94 91 89 93 95 112 134 155 156 162 168
5 11 10 13 10 13 16 14 14 20 22 30 41 47 52 57 62 64 68 71 71 73 78 84 88 93 95 98 100 100 101 100 99 99 100 102 104 105 102 99 96 98 100 99 98 126 133
358 1 8 14 14 8 9 13 9 7 14 19 25 30 43 55 64 69 71 73 75 76 76 78 81 83 87 90 93 95 95 96 95 96 97 98 97 97 97 96 98 96 95 98 101 104 104
353 3 10 7 16 14 6 5 1 4 357 8 16 22 30 29 40 51 62 73 75 74 75 76 81 84 87 89 89 90 93 93 94 94 94 95 96 99 101 99 95 95 98 101 102 101 99
348 355 355 7 13 17 14 7 356 351 352 350 357 5 7 15 25 32 41 48 58 65 69 71 73 77 78 79 82 86 88 87 88 89 91 90 91 92 92 92 91 93 95 93 95 99 94
343 347 353 357 10 13 15 11 9 348 339 337 339 342 355 3 8 13 18 30 39 50 58 64 69 74 76 76 80 84 86 88 88 90 92 93 96 98 100 100 100 100 101 100 100 96 94
339 340 349 0 354 10 11 14 6 358 331 320 315 324 328 338 344 347 347 345 350 17 34 45 56 68 71 73 73 76 79 79 82 87 93 101 102 108 112 111 112 112 111 113 115 115 110
Height
10667 10654 10641 10627 10613 10599 10584 10568 10553 10539 10526 10513 10501 10491 10483 10478 10476 10473 10470 10470 10470 10472 10477 10477 10477 10477 10484 10487 10494 10502 10510 10512 10520 10528 10535 10545 10552 10559 10567 10572 10578 10591 10598 10602 10607 10613 10619
10654 10639 10624 10608 10592 10576 10559 10543 10526 10510 10495 10482 10471 10459 10451 10446 10444 10444 10443 10444 10446 10448 10451 10456 10458 10461 10466 10467 10476 10484 10490 10497 10502 10508 10516 10526 10535 10541 10546 10553 10561 10568 10580 10581 10588 10592 10597
10638 10622 10605 10588 10571 10552 10535 10515 10497 10479 10462 10446 10437 10426 10418 10414 10412 10413 10414 10417 10421 10425 10429 10433 10440 10447 10449 10448 10458 10465 10474 10482 10487 10493 10500 10507 10516 10522 10529 10536 10544 10552 10561 10565 10562 10570 10581
10623 10604 10585 10565 10546 10525 10503 10484 10463 10442 10424 10408 10396 10388 10382 10380 10380 10380 10385 10391 10396 10403 10407 10412 10421 10430 10430 10431 10444 10449 10460 10464 10470 10479 10484 10491 10499 10505 10513 10520 10528 10535 10540 10547 10546 10554 10561
10605 10584 10563 10541 10517 10492 10467 10445 10424 10405 10389 10376 10362 10353 10349 10346 10349 10350 10357 10363 10370 10380 10388 10396 10404 10410 10416 10420 10430 10437 10444 10451 10457 10465 10469 10476 10483 10490 10499 10507 10514 10516 10520 10531 10531 10537 10539
10590 10565 10540 10513 10486 10458 10433 10415 10393 10373 10355 10339 10331 10323 10320 10320 10322 10326 10332 10339 10349 10358 10369 10378 10388 10396 10402 10409 10418 10425 10432 10438 10443 10449 10456 10463 10471 10477 10488 10492 10494 10501 10508 10510 10512 10514 10520
10565 10537 10506 10475 10451 10425 10406 10390 10372 10353 10332 10317 10306 10298 10295 10296 10299 10305 10311 10319 10330 10340 10349 10361 10375 10384 10390 10400 10409 10414 10419 10425 10432 10439 10446 10455 10460 10465 10470 10477 10482 10489 10491 10493 10495 10499 10505
10550 10517 10477 10445 10420 10396 10375 10354 10338 10324 10308 10296 10287 10279 10279 10281 10282 10287 10296 10305 10313 10322 10339 10351 10360 10370 10381 10391 10399 10403 10410 10418 10424 10432 10438 10443 10446 10454 10461 10464 10470 10472 10474 10477 10481 10485 10486
10524 10486 10449 10418 10394 10365 10344 10328 10315 10300 10287 10277 10270 10265 10266 10267 10269 10275 10285 10294 10302 10314 10329 10339 10351 10363 10374 10383 10391 10398 10404 10410 10418 10423 10428 10434 10440 10445 10449 10453 10458 10461 10463 10463 10463 10467 10469
10503 10465 10430 10401 10373 10351 10332 10313 10297 10283 10272 10265 10260 10257 10257 10257 10262 10270 10278 10287 10296 10308 10322 10335 10346 10357 10368 10378 10386 10393 10399 10406 10412 10418 10422 10427 10433 10438 10441 10443 10445 10448 10448 10448 10449 10450 10452
10483 10449 10417 10392 10368 10344 10323 10303 10288 10277 10267 10260 10256 10253 10252 10254 10261 10267 10275 10285 10295 10307 10320 10332 10343 10355 10365 10375 10382 10389 10398 10404 10407 10413 10418 10424 10426 10429 10431 10432 10432 10434 10435 10435 10436 10437 10440
10472 10439 10409 10385 10362 10341 10321 10302 10287 10274 10266 10260 10256 10253 10252 10255 10261 10269 10277 10285 10296 10309 10319 10331 10342 10355 10365 10373 10382 10389 10395 10400 10405 10411 10415 10418 10418 10420 10420 10421 10422 10422 10424 10425 10426 10429 10432
10469 10436 10409 10389 10368 10347 10327 10307 10292 10279 10271 10265 10261 10259 10260 10261 10267 10274 10281 10290 10301 10312 10324 10335 10348 10358 10368 10375 10383 10390 10395 10399 10403 10407 10409 10410 10411 10411 10412 10413 10414 10416 10419 10420 10422 10426 10428
10474 10440 10415 10395 10375 10356 10337 10320 10303 10291 10281 10276 10272 10269 10271 10273 10277 10283 10291 10300 10308 10318 10332 10343 10353 10363 10372 10379 10385 10390 10394 10398 10401 10403 10404 10404 10405 10406 10408 10410 10414 10416 10418 10419 10419 10424 10429
10482 10452 10426 10406 10388 10367 10347 10333 10319 10308 10299 10294 10290 10287 10288 10289 10294 10299 10306 10316 10322 10330 10341 10350 10361 10369 10376 10381 10386 10389 10394 10397 10399 10399 10401 10401 10402 10404 10407 10409 10412 10414 10417 10419 10422 10426 10432
10495 10473 10450 10428 10407 10385 10365 10352 10341 10330 10322 10313 10311 10309 10309 10309 10312 10317 10325 10333 10338 10344 10353 10361 10368 10374 10379 10382 10386 10390 10395 10396 10397 10398 10399 10401 10403 10405 10407 10410 10413 10416 10420 10423 10426 10431 10437
10510 10489 10468 10449 10432 10414 10396 10382 10368 10356 10347 10337 10330 10334 10337 10337 10336 10340 10344 10353 10358 10361 10366 10371 10374 10378 10380 10383 10388 10392 10394 10396 10397 10399 10402 10403 10406 10407 10410 10413 10416 10419 10423 10429 10435 10437 10442
10524 10501 10485 10466 10450 10437 10426 10412 10400 10387 10376 10367 10352 10355 10360 10359 10364 10363 10363 10365 10368 10371 10376 10379 10381 10382 10384 10388 10391 10393 10395 10398 10400 10402 10404 10407 10409 10411 10413 10416 10420 10423 10428 10434 10436 10446 10450
10536 10519 10501 10487 10473 10460 10450 10438 10427 10416 10404 10396 10382 10378 10380 10379 10379 10379 10377 10378 10379 10381 10383 10385 10387 10388 10391 10392 10394 10396 10399 10403 10405 10407 10409 10411 10412 10414 10417 10422 10425 10430 10434 10438 10443 10450 10456
10554 10534 10517 10504 10492 10482 10472 10462 10452 10440 10430 10420 10412 10405 10402 10398 10396 10393 10391 10391 10391 10391 10392 10393 10394 10396 10397 10397 10399 10403 10406 10408 10411 10413 10415 10417 10418 10421 10423 10427 10430 10434 10438 10443 10448 10455 10462
10568 10550 10533 10518 10509 10499 10490 10482 10472 10462 10452 10445 10439 10430 10424 10419 10415 10411 10408 10406 10403 10402 10401 10403 10403 10404 10403 10404 10407 10409 10412 10414 10416 10417 10420 10424 10425 10427 10429 10431 10435 10438 10443 10447 10452 10459 10465
10582 10567 10550 10532 10522 10514 10507 10500 10492 10482 10473 10465 10460 10454 10445 10438 10431 10426 10423 10419 10417 10416 10416 10413 10415 10415 10412 10412 10414 10417 10420 10421 10422 10424 10427 10430 10433 10436 10437 10439 10442 10444 10447 10451 10456 10461 10467
10594 10580 10562 10546 10533 10526 10522 10516 10510 10503 10495 10489 10480 10474 10466 10459 10451 10446 10442 10439 10437 10434 10430 10427 10428 10426 10424 10425 10426 10428 10428 10429 10431 10430 10433 10435 10439 10443 10444 10446 10450 10453 10455 10456 10460 10463 10467
10603 10589 10576 10561 10547 10535 10529 10527 10525 10518 10512 10506 10499 10493 10484 10477 10471 10465 10461 10458 10456 10454 10449 10447 10444 10441 10438 10437 10438 10440 10440 10441 10443 10442 10441 10444 10448 10450 10452 10453 10456 10459 10462 10464 10467 10473 10475
10610 10599 10588 10572 10560 10548 10536 10533 10532 10529 10525 10519 10514 10509 10502 10495 10488 10484 10481 10477 10474 10472 10468 10465 10461 10459 10456 10455 10453 10453 10453 10453 10454 10456 10455 10456 10460 10462 10463 10464 10468 10468 10469 10472 10475 10480 10482
10616 10606 10595 10583 10569 10558 10548 10538 10535 10534 10532 10528 10524 10520 10516 10512 10505 10500 10496 10492 10489 10487 10485 10481 10478 10476 10474 10473 10471 10469 10467 10465 10467 10467 10469 10468 10471 10473 10475 10476 10476 10478 10480 10482 10485 10487 10491
10622 10612 10602 10591 10578 10565 10557 10547 10540 10538 10536 10534 10532 10527 10523 10521 10518 10514 10510 10507 10503 10499 10497 10495 10493 10490 10489 10487 10485 10483 10481 10480 10480 10480 10481 10481 10482 10483 10485 10486 10486 10487 10489 10491 10492 10494 10494
10623 10616 10607 10598 10587 10575 10562 10555 10546 10540 10539 10537 10535 10534 10530 10527 10525 10522 10520 10517 10513 10510 10508 10506 10504 10502 10501 10500 10497 10496 10495 10493 10493 10493 10492 10493 10493 10493 10494 10495 10496 10496 10497 10497 10497 10498 10498
10621 10615 10611 10603 10594 10583 10569 10559 10551 10543 10537 10536 10535 10535 10534 10531 10528 10526 10524 10522 10519 10516 10513 10511 10509 10508 10508 10506 10505 10504 10503 10503 10503 10502 10502 10502 10502 10502 10502 10502 10501 10501 10501 10501 10502 10502 10502